Regional Weather Roundup
Issued by NWS

Home | Current Version | Previous Version | Text Only | Print | Product List | Glossary On
Versions: 1 2 3 4 5 6 7 8 9 10 11 12 13 14 15 16 17 18 19 20 21 22 23 24 25 26 27 28 29 30 31 32 33 34 35 36 37 38 39 40 41 42 43 44 45 46 47 48 49 50
137
ASUS44 KLIX 121610
RWRLA
LOUISIANA WEATHER ROUNDUP
NATIONAL WEATHER SERVICE NEW ORLEANS LA
1000 AM CST FRI FEB 12 2016

NOTE: "FAIR" INDICATES FEW OR NO CLOUDS BELOW 12,000 FEET WITH NO
      SIGNIFICANT WEATHER AND/OR OBSTRUCTIONS TO VISIBILITY.
      SKY/WX - SKY CONDITION AND SIGNIFICANT WEATHER.
      TMP - AIR TEMPERATURE.    DP   - DEWPOINT TEMPERATURE.
      RH  - RELATIVE HUMIDITY.  PRES - PRESSURE.
      HX  - HEAT INDEX.         WCI  - WIND CHILL INDEX.

*  THESE STATIONS ARE NOT NWS OR FAA STATIONS AND ARE NOT UNDER
   NWS QUALITY CONTROL.

LAZ040-048-061>063-065-066-069-121700-
SOUTHEAST LOUISIANA

CITY           SKY/WX    TMP DP  RH WIND       PRES   REMARKS
N.O. AUDUBON     N/A     70 N/A N/A MISG        N/A
N.O. INTL ARPT MOSUNNY   70  58  65 W14       30.28R
N.O. LAKEFRONT SUNNY     59  56  89 W12       30.28S
N.O. DOWNTOWN* NOT AVBL
RESERVE*       FAIR      69  59  72 W10G17    30.27F
SLIDELL        CLOUDY    64  60  87 NW8       30.27R
BATON ROUGE    CLOUDY    61  58  90 W10       30.29R FOG
BOOTHVILLE     SUNNY     67  57  70 W12       30.29S
BELLE CHASSE   MOSUNNY   67  58  72 W9G16     30.28R
BOGALUSA*        N/A     67  56  68 W8        30.27R
GALLIANO*      SUNNY     69  60  73 W12       30.29R
NEW ROADS*     CLOUDY    63  59  87 W5        30.28S
GONZALES*      FAIR      67  60  77 W12       30.27S
HAMMOND*       CLOUDY    63  57  82 NW10      30.27R
HOUMA*         SUNNY     68  61  77 W14       30.29R
PORT FOURCHON* SUNNY     66  59  77 W10       30.30R

$$

LAZ041-044-053-054-121700-
SOUTHWEST LOUISIANA

CITY           SKY/WX    TMP DP  RH WIND       PRES   REMARKS
LAKE CHARLES   SUNNY     67  60  78 W7        30.27R
LAFAYETTE      MOSUNNY   67  60  78 W12       30.28R
PATTERSON      MOSUNNY   68  57  68 W14G20    30.30R
SALT POINT       N/A     61  58  90 SW5       30.28R
NEW IBERIA     PTSUNNY   66  60  81 W12       30.29R
CHENAULT AIRPK MOSUNNY   64  61  88 W12       30.27R

$$

LAZ027-028-121700-
CENTRAL LOUISIANA

CITY           SKY/WX    TMP DP  RH WIND       PRES   REMARKS
FORT POLK      NOT AVBL
ALEXANDRIA INT MOSUNNY   65  58  78 W14       30.25R
ALEXANDRIA     PTSUNNY   69  56  62 W13       30.25S

$$

LAZ001-002-121700-
NORTHWEST LOUISIANA

CITY           SKY/WX    TMP DP  RH WIND       PRES   REMARKS
SHREVEPORT     SUNNY     53  34  48 CALM      30.26R
BARKSDALE AFB  NOT AVBL
DTN SHREVEPORT SUNNY     50  33  52 N5        30.28R

$$

LAZ014-016-121700-
NORTHEAST LOUISIANA

CITY           SKY/WX    TMP DP  RH WIND       PRES   REMARKS
MONROE         SUNNY     50  35  56 CALM      30.28R
TALLULAH       SUNNY     57  38  48 VRB5      30.26R

$$





USA.gov is the U.S. government's official web portal to all federal, state and local government web resources and services.